sat.trackr.live / text

‹ back to catalog

STARLINK-11457 [DTC]

NORAD 62919 · 2025-027N

PAYLOAD ACTIVE UNKNOWN

§ Identity

Operator
Country
US
Launch date
2025-02-08
Launch site
AFETR
Launch vehicle
Mass (kg)
RCS (m²)

Purposes: comms

External: N2YO · Heavens-Above · Gunter

§ Orbital elements

Epoch: 2026-05-24T23:24:18.646848Z

Period
91.66 min
Inclination
42.9988°
Eccentricity
0.0002589
Mean motion
15.70947109 rev/d
Perigee alt
354.4 km
Apogee alt
357.9 km
Semi-major
6,734.3 km
B*
2.3202e-3
RAAN
247.4951°
Arg perigee
292.5027°
Mean anomaly
67.5566°
Rev number
7,515

§ Raw data

STARLINK-11457 [DTC]1 62919U 25027N   26144.97521582  .00310035  00000+0  23202-2 0  99912 62919  42.9988 247.4951 0002589 292.5027  67.5566 15.70947109 75158

JSON: /api/v1/satellites/62919 · /tle

For live sub-satellite position, see the globe view (requires WebGL).

§ Visibility from observer

Set your observer location to see the next 7 days of passes ≥ 10°. The values pass through the URL so the page stays shareable.

No JS? Fill the form by hand. The geolocation button needs JavaScript.